User: anonymous
Location: Caltech
(34.1382°N, 118.1253°W)
Time: 05:40:20
(UTC-07:00)
Language:

COSMOS 2428 - Orbit

View from above orbital plane
View from above orbital plane
View from above satellite
View from above satellite

Ground track
Ground track

The orbit data is extracted from the following two-line orbital elements,

1 31792U 07029A   14232.21071938  .00000316  00000-0  19712-3 0  9176
2 31792 070.9627 055.3797 0006433 019.5958 101.7645 14.12398681368356
Epoch (UTC): 20 August 2014 05:03:26
Eccentricity: 0.0006433
inclination: 70.9627°
perigee height: 846 km
apogee height: 856 km
right ascension of ascending node: 55.3797°
argument of perigee: 19.5958°
revolutions per day: 14.12398681
mean anomaly at epoch: 101.7645°
orbit number at epoch: 36835

The dashed part of the orbit path shows where the satellite is in the earth's shadow,  

DLR